[[{"header":{"parameterUnit":"m.s-1","parameterCategory":1,"la1":30.2991,"la2":30.254,"lo1":-89.0895,"lo2":-89.0444,"dy":0.0017,"dx":0.0017,"nx":28,"ny":28,"refTime":"2025-01-24T09:00:00:Z","depth":0,"parameterNumber":2,"parameterNumberName":"U-component_of_WINDS"},"data":[0,0,0,0,0,0,0,0,0,0,0,0,0,0,0,0,0,0,0,0,0,0,0,0,0,0,0,0,0,0,0,0,0,0,0,0,0,0,0,0,0,0,0,0,0,0,0,0,0,0,0,0,0,0,0,0,0,0,-3.3364,-3.3364,0,-3.3361,-3.3361,-3.3361,-3.3279,-3.3277,-3.3275,-3.3273,-3.3272,-3.3274,-3.3276,0,0,0,0,0,0,0,0,0,0,0,0,0,-3.3298,-3.3299,-3.3364,-3.3364,-3.3364,-3.3361,-3.3361,-3.3361,-3.3279,-3.3277,-3.3274,-3.3272,-3.3271,-3.3273,-3.3276,0,0,0,0,0,0,0,0,0,0,0,0,0,-3.3314,-3.33,-3.3364,-3.3322,-3.3319,-3.3361,-3.3361,-3.3361,-3.328,-3.3277,-3.3273,-3.327,-3.327,-3.3273,-3.3276,-3.3359,0,0,-3.3285,-3.3286,0,0,0,0,0,0,0,0,-3.3313,-3.3317,-3.3328,-3.3325,-3.3321,-3.3317,-3.3338,-3.3361,-3.3281,-3.3295,-3.3273,-3.3269,-3.329,-3.3291,-3.3297,-3.3359,-3.3359,-3.3285,-3.3287,-3.3289,-3.3289,0,0,0,0,0,0,0,-3.3312,-3.3316,-3.3363,-3.3329,-3.3324,-3.3304,-3.3303,-3.3342,-3.331,-3.3293,-3.3287,-3.3288,-3.3287,-3.3295,-3.3297,-3.3359,-3.3285,-3.3288,-3.329,-3.3291,-3.3486,-3.3489,0,0,0,0,0,0,-3.3317,-3.3316,-3.3363,-3.3363,-3.3309,-3.3308,-3.3307,-3.3322,-3.331,-3.3305,-3.3291,-3.3284,-3.3291,-3.3293,-3.3296,-3.3391,-3.3288,-3.3291,-3.3293,-3.3483,-3.3487,-3.3491,0,0,0,0,0,0,-3.3316,-3.3322,-3.3363,-3.3338,-3.3341,-3.3313,-3.333,-3.3323,-3.3331,-3.3308,-3.3302,-3.3304,-3.3289,-3.3292,-3.3343,-3.339,-3.3293,-3.3295,-3.3479,-3.3484,-3.3489,-3.3581,0,0,0,0,0,0,-3.3314,-3.3322,-3.3353,-3.3339,-3.3343,-3.341,-3.3333,-3.3326,-3.3336,-3.3327,-3.3319,-3.3314,-3.3287,-3.3339,-3.3346,-3.3392,-3.3298,-3.3474,-3.3481,-3.3487,-3.3574,-3.3589,-3.3602,0,0,0,0,0,-3.3312,-3.338,-3.3355,-3.3361,-3.3381,-3.3413,-3.3415,-3.3381,-3.334,-3.3371,-3.3356,-3.3315,-3.3384,-3.3345,-3.3352,-3.34,-3.3471,-3.3479,-3.3487,-3.3568,-3.3586,-3.3602,0,0,0,0,0,0,-3.34,-3.3377,-3.3349,-3.3414,-3.3416,-3.3399,-3.3436,-3.3402,-3.3416,-3.3407,-3.3365,-3.3364,-3.3422,-3.3416,-3.3373,-3.3478,-3.342,-3.343,-3.348,-3.3497,-3.3511,-3.351,-3.33,0,0,0,0,0,-3.3427,-3.3454,-3.3433,-3.3492,-3.3495,-3.3466,-3.3478,-3.3452,-3.3452,-3.3453,-3.3442,-3.3444,-3.3466,-3.3481,-3.3501,-3.3574,-3.357,-3.361,-3.3624,-3.3635,-3.3643,-3.368,-3.3697,-3.3516,-3.3516,-3.3516,0,0,-3.3483,-3.3474,-3.3494,-3.351,-3.3508,-3.3537,-3.3467,-3.3501,-3.3522,-3.3458,-3.3505,-3.3497,-3.3497,-3.3559,-3.3586,-3.3556,-3.3693,-3.3645,-3.3654,-3.3656,-3.369,-3.3707,-3.3722,-3.3521,-3.352,-3.3519,0,0,-3.3599,-3.3596,-3.3644,-3.3643,-3.3641,-3.3622,-3.3634,-3.3622,-3.3614,-3.366,-3.3612,-3.3637,-3.3677,-3.3678,-3.3684,-3.3801,-3.3763,-3.3808,-3.388,-3.3917,-3.3931,-3.3943,-3.3983,-3.3998,-3.3817,-3.3817,-3.3817,0,-3.3669,-3.371,-3.3673,-3.371,-3.3718,-3.3661,-3.371,-3.3711,-3.3716,-3.3723,-3.369,-3.3737,-3.3734,-3.3794,-3.3823,-3.383,-3.3841,-3.3808,-3.3932,-3.3944,-3.3955,-3.3993,-3.4008,-3.3823,-3.3822,-3.3821,-3.3821,0,-3.3795,-3.3825,-3.3865,-3.3869,-3.3882,-3.3925,-3.3894,-3.3912,-3.3885,-3.3869,-3.3917,-3.391,-3.3926,-3.3939,-3.3914,-3.3996,-3.3978,-3.3939,-3.3879,-3.3978,-3.4013,-3.4027,-3.383,-3.3828,-3.3827,-3.3825,0,0,-3.3966,-3.395,-3.3964,-3.3965,-3.3959,-3.3982,-3.4022,-3.4037,-3.4052,-3.4058,-3.409,-3.4124,-3.4088,-3.4095,-3.4069,-3.4102,-3.4193,-3.4059,-3.4058,-3.4082,-3.4282,-3.4309,-3.4327,-3.4168,-3.4171,-3.4173,-3.4281,0,-3.4077,-3.4143,-3.4111,-3.4181,-3.4207,-3.4154,-3.4189,-3.4189,-3.4175,-3.4196,-3.4181,-3.4205,-3.4157,-3.416,-3.419,-3.4175,-3.4232,-3.4167,-3.4197,-3.4198,-3.4196,-3.4345,-3.4374,-3.4476,-3.4295,-3.4297,-3.4299,0,-3.4215,-3.4225,-3.4298,-3.4285,-3.4295,-3.4327,-3.4338,-3.4358,-3.4357,-3.4345,-3.4353,-3.4319,-3.4358,-3.43,-3.4352,-3.4309,-3.432,-3.4314,-3.4317,-3.4317,-3.4253,-3.4347,-3.4508,-3.4523,-3.432,-3.4318,-3.4317,0,-3.4329,-3.4361,-3.4408,-3.4411,-3.4399,-3.4422,-3.4419,-3.4414,-3.4425,-3.4435,-3.4442,-3.4457,-3.4464,-3.4477,-3.4448,-3.4409,-3.4504,-3.4444,-3.4494,-3.4494,-3.4514,-3.4513,-3.4678,-3.4525,-3.4525,-3.4524,-3.4524,0,-3.4455,-3.4501,-3.4459,-3.4488,-3.4538,-3.4501,-3.4552,-3.4542,-3.4539,-3.4565,-3.4521,-3.4547,-3.4508,-3.453,-3.4509,-3.4554,-3.4559,-3.4549,-3.4542,-3.4552,-3.4553,-3.4556,-3.4548,-3.4528,-3.4528,-3.4527,-3.4526,0,-3.459,-3.4565,-3.4612,-3.4596,-3.4594,-3.4631,-3.4617,-3.4644,-3.4627,-3.4661,-3.4666,-3.4641,-3.4664,-3.4637,-3.4659,-3.4644,-3.4705,-3.4689,-3.4705,-3.47,-3.475,-3.4745,-3.4921,-3.4941,-3.4778,-3.478,-3.4781,0,-3.4671,-3.4705,-3.4693,-3.4707,-3.4705,-3.4728,-3.4739,-3.4704,-3.4717,-3.4719,-3.4744,-3.4764,-3.4777,-3.4817,-3.4801,-3.4817,-3.4799,-3.486,-3.4801,-3.4809,-3.4798,-3.4795,-3.4797,-3.4871,-3.4873,-3.4875,-3.4876,0,-3.4816,-3.4802,-3.4818,-3.4831,-3.4844,-3.4853,-3.4858,-3.4872,-3.4836,-3.4853,-3.4875,-3.4886,-3.4907,-3.4927,-3.4938,-3.4934,-3.4899,-3.4895,-3.4907,-3.4916,-3.4922,-3.4917,-3.4735,-3.4891,-3.4889,-3.4888,-3.4887,-3.4887,-3.4925,-3.4952,-3.4947,-3.4967,-3.4967,-3.4973,-3.4996,-3.4982,-3.5,-3.5014,-3.4994,-3.5022,-3.502,-3.5031,-3.5032,-3.5053,-3.5027,-3.5045,-3.5049,-3.5053,-3.506,-3.4921,-3.5056,-3.5055,-3.5055,-3.5054,-3.5054,0,-3.5066,-3.506,-3.5079,-3.5087,-3.5102,-3.5068,-3.5072,-3.5087,-3.5112,-3.5113,-3.5127,-3.5153,-3.5172,-3.5157,-3.5173,-3.5193,-3.5177,-3.5198,-3.5195,-3.5194,-3.5083,-3.507,-3.521,-3.521,-3.521,-3.521,-3.521,-3.521,-3.5141,-3.5184,-3.517,-3.5212,-3.5207,-3.5233,-3.5238,-3.5243,-3.5243,-3.5274,-3.5289,-3.5279,-3.5273,-3.5288,-3.5304,-3.5299,-3.5306,-3.5332,-3.5321,-3.5218,-3.5202,-3.5187,-3.5175,-3.5335,-3.5335,-3.543,-3.5431,-3.5431]},{"header":{"parameterUnit":"m.s-1","parameterCategory":1,"la1":30.2991,"la2":30.254,"lo1":-89.0895,"lo2":-89.0444,"dy":0.0017,"dx":0.0017,"nx":28,"ny":28,"refTime":"2025-01-24T09:00:00:Z","depth":0,"parameterNumber":3,"parameterNumberName":"V-component_of_WINDS"},"data":[0,0,0,0,0,0,0,0,0,0,0,0,0,0,0,0,0,0,0,0,0,0,0,0,0,0,0,0,0,0,0,0,0,0,0,0,0,0,0,0,0,0,0,0,0,0,0,0,0,0,0,0,0,0,0,0,0,0,-1.0027,-1.0028,0,-1.0044,-1.0044,-1.0045,-1.011,-1.0112,-1.0113,-1.0114,-1.0128,-1.0127,-1.0126,0,0,0,0,0,0,0,0,0,0,0,0,0,-1.0048,-1.0047,-1.0027,-1.0028,-1.0028,-1.0044,-1.0044,-1.0045,-1.011,-1.0112,-1.0113,-1.0115,-1.0128,-1.0127,-1.0126,0,0,0,0,0,0,0,0,0,0,0,0,0,-1.0049,-1.0047,-1.0027,-1.0062,-1.0066,-1.0044,-1.0044,-1.0045,-1.0109,-1.0112,-1.0114,-1.0116,-1.0128,-1.0127,-1.0125,-1.007,0,0,-1.0121,-1.012,0,0,0,0,0,0,0,0,-1.0049,-1.0048,-1.0057,-1.006,-1.0064,-1.0078,-1.0057,-1.0053,-1.0109,-1.0093,-1.0115,-1.0117,-1.0109,-1.0109,-1.0107,-1.0071,-1.0071,-1.012,-1.0119,-1.0119,-1.0118,0,0,0,0,0,0,0,-1.0049,-1.0048,-1.0034,-1.0057,-1.0061,-1.0076,-1.0079,-1.0056,-1.0088,-1.0094,-1.0099,-1.01,-1.0111,-1.0108,-1.0108,-1.0072,-1.012,-1.0119,-1.0118,-1.0117,-0.9988,-0.9986,0,0,0,0,0,0,-1.0044,-1.0047,-1.0033,-1.0035,-1.0062,-1.0074,-1.0077,-1.0071,-1.0088,-1.0093,-1.0098,-1.0103,-1.011,-1.011,-1.0109,-1.0043,-1.0119,-1.0117,-1.0116,-0.9991,-0.9988,-0.9985,0,0,0,0,0,0,-1.0044,-1.0042,-1.0033,-1.0042,-1.0042,-1.0071,-1.0064,-1.007,-1.0067,-1.0091,-1.0097,-1.009,-1.0112,-1.0111,-1.0079,-1.0044,-1.0117,-1.0115,-0.9994,-0.999,-0.9986,-0.9912,0,0,0,0,0,0,-1.0045,-1.0042,-1.0022,-1.0041,-1.0041,-1.0004,-1.0062,-1.0068,-1.0065,-1.0071,-1.0085,-1.0089,-1.0114,-1.0081,-1.0077,-1.0043,-1.0114,-0.9997,-0.9992,-0.9988,-0.9917,-0.9906,-0.9896,0,0,0,0,0,-1.0045,-1.0,-1.0021,-1.0019,-1.0017,-1.0002,-1.0002,-1.0031,-1.0062,-1.0041,-1.0057,-1.0089,-1.0049,-1.0077,-1.0074,-1.0038,-0.9999,-0.9993,-0.9988,-0.9922,-0.9908,-0.9896,0,0,0,0,0,0,-0.9974,-1.0003,-1.0026,-0.9987,-0.9991,-1.0013,-0.9988,-1.0016,-1.0011,-1.0017,-1.0054,-1.0056,-1.0018,-1.0026,-1.0056,-0.9985,-1.003,-1.0023,-0.9981,-0.9968,-0.9957,-0.9954,-1.0113,0,0,0,0,0,-0.9955,-0.9941,-0.9966,-0.9928,-0.993,-0.9958,-0.9952,-0.9975,-0.9981,-0.9983,-0.9996,-0.9999,-0.9987,-0.9979,-0.9969,-0.992,-0.9922,-0.9894,-0.9883,-0.9875,-0.9867,-0.9839,-0.9826,-0.9967,-0.9967,-0.9967,0,0,-0.9913,-0.9927,-0.9915,-0.9915,-0.9921,-0.9904,-0.9959,-0.9939,-0.9926,-0.998,-0.9949,-0.9959,-0.9965,-0.9924,-0.9906,-0.9929,-0.9829,-0.9868,-0.986,-0.9858,-0.9832,-0.9818,-0.9806,-0.9963,-0.9964,-0.9964,0,0,-0.9827,-0.9837,-0.9806,-0.9811,-0.9821,-0.984,-0.9832,-0.985,-0.9858,-0.983,-0.9868,-0.9853,-0.9833,-0.9835,-0.9833,-0.9748,-0.9776,-0.9744,-0.9687,-0.9659,-0.9648,-0.9638,-0.9604,-0.9592,-0.9738,-0.9737,-0.9737,0,-0.9772,-0.975,-0.9786,-0.9763,-0.976,-0.9809,-0.9776,-0.978,-0.9785,-0.9781,-0.9807,-0.9782,-0.9789,-0.9748,-0.9727,-0.9725,-0.9715,-0.9741,-0.9647,-0.9637,-0.9629,-0.9597,-0.9584,-0.9733,-0.9734,-0.9734,-0.9734,0,-0.9681,-0.9665,-0.9638,-0.9642,-0.9637,-0.9609,-0.964,-0.963,-0.9654,-0.9669,-0.9638,-0.965,-0.9642,-0.9635,-0.9658,-0.9596,-0.9609,-0.9641,-0.9686,-0.961,-0.9581,-0.9569,-0.9727,-0.9728,-0.973,-0.9731,0,0,-0.9548,-0.9574,-0.9563,-0.9565,-0.9579,-0.9566,-0.954,-0.9534,-0.9524,-0.9526,-0.9503,-0.9485,-0.9514,-0.9512,-0.9536,-0.9512,-0.9439,-0.9546,-0.9547,-0.9522,-0.9368,-0.9341,-0.9327,-0.946,-0.9458,-0.9456,-0.9366,0,-0.9463,-0.9421,-0.9453,-0.9404,-0.9387,-0.9434,-0.9412,-0.9417,-0.9431,-0.9418,-0.9435,-0.9419,-0.9461,-0.9459,-0.9438,-0.9453,-0.9408,-0.946,-0.9436,-0.9434,-0.9429,-0.9312,-0.9284,-0.9198,-0.9355,-0.9354,-0.9352,0,-0.9358,-0.9356,-0.9306,-0.9322,-0.9317,-0.9295,-0.9292,-0.928,-0.9286,-0.9299,-0.9296,-0.9326,-0.93,-0.9347,-0.9309,-0.9344,-0.9336,-0.9342,-0.9339,-0.9335,-0.9386,-0.9301,-0.9172,-0.9157,-0.9335,-0.9337,-0.9338,0,-0.9261,-0.9247,-0.9214,-0.9215,-0.9234,-0.9218,-0.9225,-0.9234,-0.9228,-0.9225,-0.9221,-0.9214,-0.9209,-0.9203,-0.9229,-0.9262,-0.9187,-0.9237,-0.9193,-0.9192,-0.9172,-0.9172,-0.9036,-0.9174,-0.9174,-0.9174,-0.9175,0,-0.9161,-0.9127,-0.9171,-0.915,-0.9113,-0.915,-0.9112,-0.9125,-0.9132,-0.9113,-0.9155,-0.9136,-0.9174,-0.9158,-0.9179,-0.9142,-0.9141,-0.9148,-0.9153,-0.9142,-0.914,-0.9134,-0.9139,-0.9171,-0.9172,-0.9172,-0.9173,0,-0.9045,-0.9074,-0.904,-0.9062,-0.9067,-0.9038,-0.9056,-0.9037,-0.9055,-0.903,-0.9027,-0.9054,-0.9038,-0.9065,-0.9052,-0.9066,-0.9014,-0.9031,-0.9012,-0.9015,-0.8969,-0.8971,-0.8821,-0.8801,-0.8955,-0.8953,-0.8952,0,-0.8977,-0.8952,-0.8972,-0.8963,-0.8967,-0.8953,-0.8947,-0.8983,-0.8975,-0.898,-0.8959,-0.8947,-0.8939,-0.891,-0.8928,-0.8917,-0.8931,-0.888,-0.893,-0.8919,-0.8926,-0.8925,-0.8921,-0.8868,-0.8866,-0.8864,-0.8863,0,-0.8852,-0.8867,-0.8858,-0.8853,-0.8846,-0.8844,-0.8844,-0.8834,-0.8872,-0.886,-0.8845,-0.8839,-0.8826,-0.8811,-0.8806,-0.8811,-0.8841,-0.8848,-0.8837,-0.8823,-0.8811,-0.8813,-0.8979,-0.885,-0.8851,-0.8852,-0.8853,-0.8854,-0.8755,-0.8735,-0.8745,-0.8733,-0.8737,-0.8737,-0.8719,-0.8736,-0.8724,-0.8717,-0.8739,-0.8717,-0.8724,-0.8719,-0.8721,-0.8704,-0.8726,-0.8711,-0.8706,-0.8701,-0.8691,-0.8818,-0.8703,-0.8704,-0.8704,-0.8705,-0.8705,0,-0.8629,-0.8638,-0.8627,-0.8627,-0.8617,-0.865,-0.8653,-0.8641,-0.8622,-0.8626,-0.8618,-0.8599,-0.8585,-0.8603,-0.8592,-0.8574,-0.8588,-0.857,-0.8569,-0.8569,-0.8674,-0.8683,-0.8559,-0.8559,-0.8559,-0.8559,-0.8559,-0.8559,-0.8562,-0.8528,-0.8544,-0.8512,-0.8522,-0.8502,-0.85,-0.8499,-0.8502,-0.8479,-0.8469,-0.8481,-0.849,-0.848,-0.8468,-0.8474,-0.8466,-0.8442,-0.8451,-0.8548,-0.8562,-0.8576,-0.8584,-0.8441,-0.8441,-0.8348,-0.8347,-0.8346]}]]